Time,TemperatureF,DewpointF,PressureIn,WindDirection,WindDirectionDegrees,WindSpeedMPH,WindSpeedGustMPH,Humidity,HourlyPrecipIn,Conditions,Clouds,dailyrainin,SoftwareType,DateUTC
2013-04-13 00:03:00,49.0,-99.9,29.66,NNE,27,5.0,13.0,-999,-99.99,,,-99.99,,2013-04-13 04:03:00,
2013-04-13 00:12:00,49.0,-99.9,29.66,NNE,20,7.0,20.0,-999,-99.99,,,-99.99,,2013-04-13 04:12:00,
2013-04-13 00:23:00,49.0,-99.9,29.67,NNE,31,5.0,14.0,-999,-99.99,,,-99.99,,2013-04-13 04:23:00,
2013-04-13 00:33:00,48.0,-99.9,29.66,ENE,57,8.0,15.0,-999,-99.99,,,-99.99,,2013-04-13 04:33:00,
2013-04-13 00:42:00,48.0,-99.9,29.65,ENE,67,7.0,12.0,-999,-99.99,,,-99.99,,2013-04-13 04:42:00,
2013-04-13 00:53:00,48.0,-99.9,29.66,East,83,4.0,7.0,-999,-99.99,,,-99.99,,2013-04-13 04:53:00,
2013-04-13 01:03:00,49.0,-99.9,29.67,NE,54,5.0,7.0,-999,-99.99,,,-99.99,,2013-04-13 05:03:00,
2013-04-13 01:12:00,49.0,-99.9,29.69,NNE,20,1.0,4.0,-999,-99.99,,,-99.99,,2013-04-13 05:12:00,
2013-04-13 01:23:00,49.0,-99.9,29.70,NW,325,1.0,7.0,-999,-99.99,,,-99.99,,2013-04-13 05:23:00,
2013-04-13 01:32:00,49.0,-99.9,29.71,North,355,2.0,9.0,-999,-99.99,,,-99.99,,2013-04-13 05:32:00,
2013-04-13 01:43:00,48.0,-99.9,29.72,NNE,21,1.0,4.0,-999,-99.99,,,-99.99,,2013-04-13 05:43:00,
2013-04-13 01:53:00,48.0,-99.9,29.72,North,4,4.0,10.0,-999,-99.99,,,-99.99,,2013-04-13 05:53:00,
2013-04-13 02:02:00,48.0,-99.9,29.74,NNE,20,5.0,14.0,-999,-99.99,,,-99.99,,2013-04-13 06:02:00,
2013-04-13 02:12:00,48.0,-99.9,29.75,NNE,16,3.0,13.0,-999,-99.99,,,-99.99,,2013-04-13 06:12:00,
2013-04-13 02:24:00,48.0,-99.9,29.75,NW,311,1.0,10.0,-999,-99.99,,,-99.99,,2013-04-13 06:24:00,
2013-04-13 02:37:00,48.0,-99.9,29.76,North,5,2.0,10.0,-999,-99.99,,,-99.99,,2013-04-13 06:37:00,
2013-04-13 02:49:00,48.0,-99.9,29.76,NNE,17,2.0,11.0,-999,-99.99,,,-99.99,,2013-04-13 06:49:00,
2013-04-13 02:57:00,47.0,-99.9,29.76,NNW,337,1.0,6.0,-999,-99.99,,,-99.99,,2013-04-13 06:57:00,
2013-04-13 03:08:00,47.0,-99.9,29.76,North,358,2.0,12.0,-999,-99.99,,,-99.99,,2013-04-13 07:08:00,
2013-04-13 03:16:00,47.0,-99.9,29.77,NNW,343,2.0,9.0,-999,-99.99,,,-99.99,,2013-04-13 07:16:00,
2013-04-13 03:25:00,47.0,-99.9,29.78,NNW,344,1.0,4.0,-999,-99.99,,,-99.99,,2013-04-13 07:25:00,
2013-04-13 03:37:00,47.0,-99.9,29.78,North,349,3.0,11.0,-999,-99.99,,,-99.99,,2013-04-13 07:37:00,
2013-04-13 03:46:00,48.0,-99.9,29.79,North,355,1.0,5.0,-999,-99.99,,,-99.99,,2013-04-13 07:46:00,
2013-04-13 04:07:00,48.0,-99.9,29.80,North,357,2.0,10.0,-999,-99.99,,,-99.99,,2013-04-13 08:07:00,
2013-04-13 04:17:00,48.0,-99.9,29.80,NNW,343,1.0,4.0,-999,-99.99,,,-99.99,,2013-04-13 08:17:00,
2013-04-13 04:27:00,48.0,-99.9,29.80,NNW,343,1.0,4.0,-999,-99.99,,,-99.99,,2013-04-13 08:27:00,
2013-04-13 04:35:00,48.0,-99.9,29.80,NNW,343,2.0,9.0,-999,-99.99,,,-99.99,,2013-04-13 08:35:00,
2013-04-13 04:47:00,48.0,-99.9,29.80,WSW,243,0.0,2.0,-999,-99.99,,,-99.99,,2013-04-13 08:47:00,
2013-04-13 04:55:00,48.0,-99.9,29.80,NNW,341,1.0,7.0,-999,-99.99,,,-99.99,,2013-04-13 08:55:00,
2013-04-13 05:06:00,48.0,-99.9,29.80,NW,324,1.0,5.0,-999,-99.99,,,-99.99,,2013-04-13 09:06:00,
2013-04-13 05:15:00,48.0,-99.9,29.81,NNW,340,1.0,5.0,-999,-99.99,,,-99.99,,2013-04-13 09:15:00,
2013-04-13 05:25:00,48.0,-99.9,29.81,NNW,341,1.0,5.0,-999,-99.99,,,-99.99,,2013-04-13 09:25:00,
2013-04-13 05:38:00,48.0,-99.9,29.81,NE,45,1.0,4.0,-999,-99.99,,,-99.99,,2013-04-13 09:38:00,
2013-04-13 05:53:00,48.0,-99.9,29.82,WNW,295,1.0,8.0,-999,-99.99,,,-99.99,,2013-04-13 09:53:00,
2013-04-13 06:05:00,48.0,-99.9,29.82,North,351,2.0,10.0,-999,-99.99,,,-99.99,,2013-04-13 10:05:00,
2013-04-13 06:16:00,48.0,-99.9,29.83,North,353,2.0,7.0,-999,-99.99,,,-99.99,,2013-04-13 10:16:00,
2013-04-13 06:25:00,48.0,-99.9,29.83,North,2,3.0,6.0,-999,-99.99,,,-99.99,,2013-04-13 10:25:00,
2013-04-13 06:38:00,48.0,-99.9,29.83,NNW,346,2.0,6.0,-999,-99.99,,,-99.99,,2013-04-13 10:38:00,
2013-04-13 06:51:00,48.0,-99.9,29.84,NNE,20,5.0,8.0,-999,-99.99,,,-99.99,,2013-04-13 10:51:00,
2013-04-13 07:08:00,48.0,-99.9,29.84,NNW,342,2.0,11.0,-999,-99.99,,,-99.99,,2013-04-13 11:08:00,
2013-04-13 07:25:00,49.0,-99.9,29.86,North,3,4.0,9.0,-999,-99.99,,,-99.99,,2013-04-13 11:25:00,
2013-04-13 07:35:00,49.0,-99.9,29.86,NNE,20,6.0,12.0,-999,-99.99,,,-99.99,,2013-04-13 11:35:00,
2013-04-13 07:47:00,50.0,-99.9,29.87,NNE,14,3.0,7.0,-999,-99.99,,,-99.99,,2013-04-13 11:47:00,
2013-04-13 07:54:00,50.0,-99.9,29.87,NNE,24,4.0,6.0,-999,-99.99,,,-99.99,,2013-04-13 11:54:00,
2013-04-13 08:09:00,50.0,-99.9,29.88,North,358,4.0,8.0,-999,-99.99,,,-99.99,,2013-04-13 12:09:00,
2013-04-13 08:17:00,51.0,-99.9,29.88,NNE,14,6.0,11.0,-999,-99.99,,,-99.99,,2013-04-13 12:17:00,
2013-04-13 08:25:00,51.0,-99.9,29.89,North,8,7.0,12.0,-999,-99.99,,,-99.99,,2013-04-13 12:25:00,
2013-04-13 08:37:00,51.0,-99.9,29.89,North,2,6.0,10.0,-999,-99.99,,,-99.99,,2013-04-13 12:37:00,
2013-04-13 08:49:00,52.0,-99.9,29.89,North,6,5.0,8.0,-999,-99.99,,,-99.99,,2013-04-13 12:49:00,
2013-04-13 08:57:00,52.0,-99.9,29.90,North,357,6.0,9.0,-999,-99.99,,,-99.99,,2013-04-13 12:57:00,
2013-04-13 09:08:00,52.0,-99.9,29.90,North,356,6.0,9.0,-999,-99.99,,,-99.99,,2013-04-13 13:08:00,
2013-04-13 09:17:00,52.0,-99.9,29.90,North,350,7.0,11.0,-999,-99.99,,,-99.99,,2013-04-13 13:17:00,
2013-04-13 09:31:00,52.0,-99.9,29.91,North,351,7.0,9.0,-999,-99.99,,,-99.99,,2013-04-13 13:31:00,
2013-04-13 09:37:00,52.0,-99.9,29.91,North,353,6.0,8.0,-999,-99.99,,,-99.99,,2013-04-13 13:37:00,
2013-04-13 09:49:00,53.0,-99.9,29.91,NNW,339,3.0,8.0,-999,-99.99,,,-99.99,,2013-04-13 13:49:00,
2013-04-13 09:58:00,53.0,-99.9,29.91,North,9,3.0,5.0,-999,-99.99,,,-99.99,,2013-04-13 13:58:00,
2013-04-13 10:05:00,53.0,-99.9,29.91,NNW,340,5.0,7.0,-999,-99.99,,,-99.99,,2013-04-13 14:05:00,
2013-04-13 10:24:00,53.0,-99.9,29.91,NNW,344,5.0,7.0,-999,-99.99,,,-99.99,,2013-04-13 14:24:00,
2013-04-13 10:39:00,53.0,-99.9,29.91,NNW,330,6.0,7.0,-999,-99.99,,,-99.99,,2013-04-13 14:39:00,
2013-04-13 10:48:00,54.0,-99.9,29.91,NNW,338,4.0,8.0,-999,-99.99,,,-99.99,,2013-04-13 14:48:00,
2013-04-13 11:00:00,54.0,-99.9,29.91,NNW,332,6.0,8.0,-999,-99.99,,,-99.99,,2013-04-13 15:00:00,
2013-04-13 11:15:00,55.0,-99.9,29.91,NW,306,6.0,9.0,-999,-99.99,,,-99.99,,2013-04-13 15:15:00,
2013-04-13 11:30:00,55.0,-99.9,29.91,WNW,297,5.0,7.0,-999,-99.99,,,-99.99,,2013-04-13 15:30:00,
2013-04-13 11:38:00,53.0,-99.9,29.91,West,281,3.0,6.0,-999,-99.99,,,-99.99,,2013-04-13 15:38:00,
2013-04-13 11:45:00,51.0,-99.9,29.91,West,268,6.0,7.0,-999,-99.99,,,-99.99,,2013-04-13 15:45:00,
2013-04-13 11:59:00,51.0,-99.9,29.91,West,275,5.0,6.0,-999,-99.99,,,-99.99,,2013-04-13 15:59:00,
2013-04-13 12:08:00,51.0,-99.9,29.91,West,272,6.0,7.0,-999,-99.99,,,-99.99,,2013-04-13 16:08:00,
2013-04-13 12:25:00,52.0,-99.9,29.91,West,267,6.0,7.0,-999,-99.99,,,-99.99,,2013-04-13 16:25:00,
2013-04-13 12:37:00,52.0,-99.9,29.91,West,267,6.0,6.0,-999,-99.99,,,-99.99,,2013-04-13 16:37:00,
2013-04-13 12:48:00,52.0,-99.9,29.91,WSW,252,6.0,6.0,-999,-99.99,,,-99.99,,2013-04-13 16:48:00,
2013-04-13 12:59:00,52.0,-99.9,29.91,WSW,255,6.0,6.0,-999,-99.99,,,-99.99,,2013-04-13 16:59:00,
2013-04-13 13:09:00,51.0,-99.9,29.91,West,276,6.0,7.0,-999,-99.99,,,-99.99,,2013-04-13 17:09:00,
2013-04-13 13:23:00,52.0,-99.9,29.91,West,277,6.0,7.0,-999,-99.99,,,-99.99,,2013-04-13 17:23:00,
2013-04-13 13:39:00,53.0,-99.9,29.91,WNW,303,5.0,7.0,-999,-99.99,,,-99.99,,2013-04-13 17:39:00,
2013-04-13 13:45:00,53.0,-99.9,29.91,NW,306,4.0,6.0,-999,-99.99,,,-99.99,,2013-04-13 17:45:00,
2013-04-13 14:04:00,53.0,-99.9,29.91,WSW,252,6.0,7.0,-999,-99.99,,,-99.99,,2013-04-13 18:04:00,
2013-04-13 14:25:00,54.0,-99.9,29.91,WNW,296,2.0,4.0,-999,-99.99,,,-99.99,,2013-04-13 18:25:00,
2013-04-13 14:33:00,55.0,-99.9,29.91,WNW,285,3.0,5.0,-999,-99.99,,,-99.99,,2013-04-13 18:33:00,
2013-04-13 14:42:00,55.0,-99.9,29.91,West,270,4.0,5.0,-999,-99.99,,,-99.99,,2013-04-13 18:42:00,
2013-04-13 14:53:00,58.0,-99.9,29.91,NW,322,1.0,4.0,-999,-99.99,,,-99.99,,2013-04-13 18:53:00,
2013-04-13 15:03:00,57.0,-99.9,29.91,NNW,333,3.0,5.0,-999,-99.99,,,-99.99,,2013-04-13 19:03:00,
2013-04-13 15:12:00,55.0,-99.9,29.90,West,272,2.0,3.0,-999,-99.99,,,-99.99,,2013-04-13 19:12:00,
2013-04-13 15:23:00,56.0,-99.9,29.90,NNW,340,5.0,8.0,-999,-99.99,,,-99.99,,2013-04-13 19:23:00,
2013-04-13 15:33:00,55.0,-99.9,29.90,West,269,5.0,7.0,-999,-99.99,,,-99.99,,2013-04-13 19:33:00,
2013-04-13 15:42:00,57.0,-99.9,29.90,NNW,348,6.0,7.0,-999,-99.99,,,-99.99,,2013-04-13 19:42:00,
2013-04-13 15:53:00,58.0,-99.9,29.89,NNW,342,5.0,7.0,-999,-99.99,,,-99.99,,2013-04-13 19:53:00,
2013-04-13 16:02:00,58.0,-99.9,29.89,NNW,335,3.0,5.0,-999,-99.99,,,-99.99,,2013-04-13 20:02:00,
2013-04-13 16:13:00,58.0,-99.9,29.89,NNW,346,5.0,8.0,-999,-99.99,,,-99.99,,2013-04-13 20:13:00,
2013-04-13 16:22:00,58.0,-99.9,29.89,NNW,335,5.0,6.0,-999,-99.99,,,-99.99,,2013-04-13 20:22:00,
2013-04-13 16:32:00,59.0,-99.9,29.89,NNW,330,5.0,7.0,-999,-99.99,,,-99.99,,2013-04-13 20:32:00,
2013-04-13 16:42:00,58.0,-99.9,29.88,NNW,328,5.0,6.0,-999,-99.99,,,-99.99,,2013-04-13 20:42:00,
2013-04-13 16:53:00,58.0,-99.9,29.88,NW,326,5.0,6.0,-999,-99.99,,,-99.99,,2013-04-13 20:53:00,
2013-04-13 17:02:00,55.0,-99.9,29.88,SW,235,10.0,15.0,-999,-99.99,,,-99.99,,2013-04-13 21:02:00,
2013-04-13 17:12:00,53.0,-99.9,29.89,SW,215,10.0,13.0,-999,-99.99,,,-99.99,,2013-04-13 21:12:00,
2013-04-13 17:22:00,52.0,-99.9,29.89,SSW,198,12.0,14.0,-999,-99.99,,,-99.99,,2013-04-13 21:22:00,
2013-04-13 17:33:00,52.0,-99.9,29.89,SSW,196,11.0,15.0,-999,-99.99,,,-99.99,,2013-04-13 21:33:00,
2013-04-13 17:43:00,52.0,-99.9,29.89,South,187,11.0,15.0,-999,-99.99,,,-99.99,,2013-04-13 21:43:00,
2013-04-13 17:53:00,52.0,-99.9,29.89,South,183,13.0,17.0,-999,-99.99,,,-99.99,,2013-04-13 21:53:00,
2013-04-13 18:03:00,52.0,-99.9,29.90,South,179,13.0,16.0,-999,-99.99,,,-99.99,,2013-04-13 22:03:00,
2013-04-13 18:13:00,52.0,-99.9,29.90,South,174,9.0,13.0,-999,-99.99,,,-99.99,,2013-04-13 22:13:00,
2013-04-13 18:23:00,52.0,-99.9,29.91,SSW,197,9.0,12.0,-999,-99.99,,,-99.99,,2013-04-13 22:23:00,
2013-04-13 18:33:00,51.0,-99.9,29.91,SSW,192,10.0,15.0,-999,-99.99,,,-99.99,,2013-04-13 22:33:00,
2013-04-13 18:42:00,51.0,-99.9,29.91,South,173,13.0,17.0,-999,-99.99,,,-99.99,,2013-04-13 22:42:00,
2013-04-13 18:53:00,51.0,-99.9,29.90,South,181,12.0,17.0,-999,-99.99,,,-99.99,,2013-04-13 22:53:00,
2013-04-13 19:02:00,50.0,-99.9,29.90,South,173,13.0,16.0,-999,-99.99,,,-99.99,,2013-04-13 23:02:00,
2013-04-13 19:12:00,50.0,-99.9,29.89,South,175,13.0,17.0,-999,-99.99,,,-99.99,,2013-04-13 23:12:00,
2013-04-13 19:22:00,50.0,-99.9,29.90,South,175,14.0,20.0,-999,-99.99,,,-99.99,,2013-04-13 23:22:00,
2013-04-13 19:33:00,50.0,-99.9,29.90,South,178,11.0,17.0,-999,-99.99,,,-99.99,,2013-04-13 23:33:00,
2013-04-13 19:43:00,50.0,-99.9,29.90,South,172,13.0,19.0,-999,-99.99,,,-99.99,,2013-04-13 23:43:00,
2013-04-13 19:53:00,50.0,-99.9,29.90,South,178,11.0,16.0,-999,-99.99,,,-99.99,,2013-04-13 23:53:00,
2013-04-13 20:03:00,50.0,-99.9,29.90,South,175,12.0,17.0,-999,-99.99,,,-99.99,,2013-04-14 00:03:00,
2013-04-13 20:12:00,49.0,-99.9,29.90,South,172,12.0,15.0,-999,-99.99,,,-99.99,,2013-04-14 00:12:00,
2013-04-13 20:22:00,49.0,-99.9,29.90,South,171,11.0,15.0,-999,-99.99,,,-99.99,,2013-04-14 00:22:00,
2013-04-13 20:32:00,49.0,-99.9,29.91,South,174,12.0,17.0,-999,-99.99,,,-99.99,,2013-04-14 00:32:00,
2013-04-13 20:42:00,49.0,-99.9,29.91,South,177,12.0,16.0,-999,-99.99,,,-99.99,,2013-04-14 00:42:00,
2013-04-13 20:52:00,49.0,-99.9,29.92,South,171,11.0,14.0,-999,-99.99,,,-99.99,,2013-04-14 00:52:00,
2013-04-13 21:02:00,49.0,-99.9,29.92,South,173,12.0,17.0,-999,-99.99,,,-99.99,,2013-04-14 01:02:00,
2013-04-13 21:13:00,49.0,-99.9,29.92,South,171,12.0,15.0,-999,-99.99,,,-99.99,,2013-04-14 01:13:00,
2013-04-13 21:23:00,49.0,-99.9,29.92,South,169,9.0,12.0,-999,-99.99,,,-99.99,,2013-04-14 01:23:00,
2013-04-13 21:33:00,49.0,-99.9,29.93,South,178,10.0,12.0,-999,-99.99,,,-99.99,,2013-04-14 01:33:00,
2013-04-13 21:43:00,49.0,-99.9,29.93,South,179,9.0,12.0,-999,-99.99,,,-99.99,,2013-04-14 01:43:00,
2013-04-13 21:53:00,49.0,-99.9,29.93,South,179,8.0,12.0,-999,-99.99,,,-99.99,,2013-04-14 01:53:00,
2013-04-13 22:03:00,49.0,-99.9,29.93,South,178,8.0,11.0,-999,-99.99,,,-99.99,,2013-04-14 02:03:00,
2013-04-13 22:13:00,49.0,-99.9,29.94,South,179,7.0,11.0,-999,-99.99,,,-99.99,,2013-04-14 02:13:00,
2013-04-13 22:22:00,49.0,-99.9,29.94,South,175,9.0,11.0,-999,-99.99,,,-99.99,,2013-04-14 02:22:00,
2013-04-13 22:33:00,49.0,-99.9,29.94,South,175,9.0,13.0,-999,-99.99,,,-99.99,,2013-04-14 02:33:00,
2013-04-13 22:43:00,49.0,-99.9,29.94,South,174,9.0,12.0,-999,-99.99,,,-99.99,,2013-04-14 02:43:00,
2013-04-13 22:53:00,49.0,-99.9,29.94,South,179,9.0,12.0,-999,-99.99,,,-99.99,,2013-04-14 02:53:00,
2013-04-13 23:03:00,50.0,-99.9,29.94,South,177,8.0,11.0,-999,-99.99,,,-99.99,,2013-04-14 03:03:00,
2013-04-13 23:13:00,50.0,-99.9,29.94,South,176,8.0,11.0,-999,-99.99,,,-99.99,,2013-04-14 03:13:00,
2013-04-13 23:22:00,50.0,-99.9,29.94,South,175,8.0,11.0,-999,-99.99,,,-99.99,,2013-04-14 03:22:00,
2013-04-13 23:33:00,50.0,-99.9,29.94,South,173,9.0,13.0,-999,-99.99,,,-99.99,,2013-04-14 03:33:00,
2013-04-13 23:43:00,50.0,-99.9,29.94,South,178,10.0,13.0,-999,-99.99,,,-99.99,,2013-04-14 03:43:00,
2013-04-13 23:53:00,50.0,-99.9,29.94,South,183,8.0,12.0,-999,-99.99,,,-99.99,,2013-04-14 03:53:00,